This is the latest recevied weather packets stored in our database for station/object DB0ROB-10. If no packets are shown the sender has not sent any weather packets the latest 10 day(s).
| Time | Temp. | Humidity | Pressure | Rain* | Wind** | Luminosity | Snow |
|---|---|---|---|---|---|---|---|
| 1778046401 | 11.67° C | 66% | 1007.1 hPa | - | - | - | - |
| 1778045501 | 11.11° C | 68% | 1007.1 hPa | - | - | - | - |
| 1778044600 | 11.11° C | 66% | 1007.1 hPa | - | - | - | - |
| 1778043700 | 10.56° C | 70% | 1007.3 hPa | - | - | - | - |
| 1778042800 | 10° C | 71% | 1007.4 hPa | - | - | - | - |
| 1778041900 | 9.44° C | 72% | 1007.4 hPa | - | - | - | - |
| 1778041000 | 9.44° C | 73% | 1007.4 hPa | - | - | - | - |
| 1778040099 | 9.44° C | 73% | 1007.4 hPa | - | - | - | - |
| 1778039199 | 9.44° C | 73% | 1007.5 hPa | - | - | - | - |
| 1778038298 | 9.44° C | 73% | 1007.6 hPa | - | - | - | - |
| 1778037398 | 9.44° C | 75% | 1007.8 hPa | - | - | - | - |
| 1778036497 | 9.44° C | 76% | 1007.9 hPa | - | - | - | - |
| 1778035597 | 9.44° C | 75% | 1007.9 hPa | - | - | - | - |
| 1778034696 | 9.44° C | 76% | 1007.9 hPa | - | - | - | - |
| 1778033796 | 9.44° C | 75% | 1008.1 hPa | - | - | - | - |
| 1778032896 | 8.89° C | 76% | 1008.2 hPa | - | - | - | - |
| 1778032000 | 9.44° C | 74% | 1008.3 hPa | - | - | - | - |
| 1778031100 | 8.89° C | 77% | 1008.4 hPa | - | - | - | - |
| 1778030200 | 9.44° C | 77% | 1008.5 hPa | - | - | - | - |
| 1778029300 | 9.44° C | 76% | 1008.5 hPa | - | - | - | - |
| 1778028399 | 9.44° C | 76% | 1008.3 hPa | - | - | - | - |
| 1778027499 | 9.44° C | 76% | 1008.5 hPa | - | - | - | - |
| 1778026599 | 9.44° C | 76% | 1008.6 hPa | - | - | - | - |
| 1778025699 | 9.44° C | 77% | 1008.9 hPa | - | - | - | - |
| 1778024798 | 10° C | 76% | 1009 hPa | - | - | - | - |
* Rain since midnight (hover to see other rain measurements)
** Current wind speed in m/s (hover to see current wind gust speed)